owner,sensor,date,latitude,longitude,vertical_datum,sea_water_practical_salinity,qcFlag 
TABS,ioos:station:wmo:42050:1,2013-12-01T00:00:00Z,28.8425,-94.2433,2.0,35.5159,11111222 
TABS,ioos:station:wmo:42050:1,2013-12-01T00:30:00Z,28.8425,-94.2433,2.0,35.5402,11111222 
TABS,ioos:station:wmo:42050:1,2013-12-01T01:00:00Z,28.8425,-94.2433,2.0,35.5793,11111222 
TABS,ioos:station:wmo:42050:1,2013-12-01T01:30:00Z,28.8425,-94.2433,2.0,35.6244,11111222 
TABS,ioos:station:wmo:42050:1,2013-12-01T02:00:00Z,28.8425,-94.2433,2.0,35.6627,11111222 
TABS,ioos:station:wmo:42050:1,2013-12-01T02:30:00Z,28.8425,-94.2433,2.0,35.7058,11111222 
TABS,ioos:station:wmo:42050:1,2013-12-01T03:00:00Z,28.8425,-94.2433,2.0,35.727,11111222 
TABS,ioos:station:wmo:42050:1,2013-12-01T03:30:00Z,28.8425,-94.2433,2.0,35.7381,11111222 
TABS,ioos:station:wmo:42050:1,2013-12-01T04:00:00Z,28.8425,-94.2433,2.0,35.7454,11111222 
TABS,ioos:station:wmo:42050:1,2013-12-01T04:30:00Z,28.8425,-94.2433,2.0,35.7546,11111222 
TABS,ioos:station:wmo:42050:1,2013-12-01T05:00:00Z,28.8425,-94.2433,2.0,35.7658,11111222 
TABS,ioos:station:wmo:42050:1,2013-12-01T05:30:00Z,28.8425,-94.2433,2.0,35.7466,11111222 
TABS,ioos:station:wmo:42050:1,2013-12-01T06:00:00Z,28.8425,-94.2433,2.0,35.7372,11111222 
TABS,ioos:station:wmo:42050:1,2013-12-01T06:30:00Z,28.8425,-94.2433,2.0,35.7715,11111222 
TABS,ioos:station:wmo:42050:1,2013-12-01T07:00:00Z,28.8425,-94.2433,2.0,35.7587,11111222 
TABS,ioos:station:wmo:42050:1,2013-12-01T07:30:00Z,28.8425,-94.2433,2.0,35.7833,11111222 
TABS,ioos:station:wmo:42050:1,2013-12-01T08:00:00Z,28.8425,-94.2433,2.0,35.8018,11111222 
TABS,ioos:station:wmo:42050:1,2013-12-01T08:30:00Z,28.8425,-94.2433,2.0,35.8089,11111222 
TABS,ioos:station:wmo:42050:1,2013-12-01T09:00:00Z,28.8425,-94.2433,2.0,35.8419,11111222 
TABS,ioos:station:wmo:42050:1,2013-12-01T09:30:00Z,28.8425,-94.2433,2.0,35.8011,11111222 
TABS,ioos:station:wmo:42050:1,2013-12-01T10:00:00Z,28.8425,-94.2433,2.0,35.7564,11111222 
TABS,ioos:station:wmo:42050:1,2013-12-01T10:30:00Z,28.8425,-94.2433,2.0,35.7245,11111222 
TABS,ioos:station:wmo:42050:1,2013-12-01T11:00:00Z,28.8425,-94.2433,2.0,35.7014,11111222 
TABS,ioos:station:wmo:42050:1,2013-12-01T11:30:00Z,28.8425,-94.2433,2.0,35.663,11111222 
TABS,ioos:station:wmo:42050:1,2013-12-01T12:00:00Z,28.8425,-94.2433,2.0,35.6466,11111222 
TABS,ioos:station:wmo:42050:1,2013-12-01T12:30:00Z,28.8425,-94.2433,2.0,35.6243,11111222 
TABS,ioos:station:wmo:42050:1,2013-12-01T13:00:00Z,28.8425,-94.2433,2.0,35.6173,11111222 
TABS,ioos:station:wmo:42050:1,2013-12-01T13:30:00Z,28.8425,-94.2433,2.0,35.6015,11111222 
TABS,ioos:station:wmo:42050:1,2013-12-01T14:00:00Z,28.8425,-94.2433,2.0,35.5961,11111222 
TABS,ioos:station:wmo:42050:1,2013-12-01T14:30:00Z,28.8425,-94.2433,2.0,35.5986,11111222 
TABS,ioos:station:wmo:42050:1,2013-12-01T15:00:00Z,28.8425,-94.2433,2.0,35.5849,11111222 
TABS,ioos:station:wmo:42050:1,2013-12-01T15:30:00Z,28.8425,-94.2433,2.0,35.5811,11111222 
TABS,ioos:station:wmo:42050:1,2013-12-01T16:00:00Z,28.8425,-94.2433,2.0,35.6034,11111222 
TABS,ioos:station:wmo:42050:1,2013-12-01T16:30:00Z,28.8425,-94.2433,2.0,35.6256,11111222 
TABS,ioos:station:wmo:42050:1,2013-12-01T17:00:00Z,28.8425,-94.2433,2.0,35.8104,11111222 
TABS,ioos:station:wmo:42050:1,2013-12-01T17:30:00Z,28.8425,-94.2433,2.0,35.8098,11111222 
TABS,ioos:station:wmo:42050:1,2013-12-01T18:00:00Z,28.8425,-94.2433,2.0,35.7658,11111222 
TABS,ioos:station:wmo:42050:1,2013-12-01T18:30:00Z,28.8425,-94.2433,2.0,35.7671,11111222 
TABS,ioos:station:wmo:42050:1,2013-12-01T19:00:00Z,28.8425,-94.2433,2.0,35.7748,11111222 
TABS,ioos:station:wmo:42050:1,2013-12-01T19:30:00Z,28.8425,-94.2433,2.0,35.7755,11111222 
TABS,ioos:station:wmo:42050:1,2013-12-01T20:00:00Z,28.8425,-94.2433,2.0,35.7796,11111222 
TABS,ioos:station:wmo:42050:1,2013-12-01T20:30:00Z,28.8425,-94.2433,2.0,35.8153,11111222 
TABS,ioos:station:wmo:42050:1,2013-12-01T21:00:00Z,28.8425,-94.2433,2.0,35.8009,11111222 
TABS,ioos:station:wmo:42050:1,2013-12-01T21:30:00Z,28.8425,-94.2433,2.0,35.7974,11111222 
TABS,ioos:station:wmo:42050:1,2013-12-01T22:00:00Z,28.8425,-94.2433,2.0,35.7955,11111222 
TABS,ioos:station:wmo:42050:1,2013-12-01T22:30:00Z,28.8425,-94.2433,2.0,35.7827,11111222 
TABS,ioos:station:wmo:42050:1,2013-12-01T23:00:00Z,28.8425,-94.2433,2.0,35.7929,11111222 
TABS,ioos:station:wmo:42050:1,2013-12-01T23:30:00Z,28.8425,-94.2433,2.0,35.7897,11111222 
TABS,ioos:station:wmo:42050:1,2013-12-02T00:00:00Z,28.8425,-94.2433,2.0,35.7822,11111222 
TABS,ioos:station:wmo:42050:1,2013-12-02T00:30:00Z,28.8425,-94.2433,2.0,35.7775,11111222 
TABS,ioos:station:wmo:42050:1,2013-12-02T01:00:00Z,28.8425,-94.2433,2.0,35.7773,11111222 
TABS,ioos:station:wmo:42050:1,2013-12-02T01:30:00Z,28.8425,-94.2433,2.0,35.7811,11111222 
TABS,ioos:station:wmo:42050:1,2013-12-02T02:00:00Z,28.8425,-94.2433,2.0,35.7805,11111222 
TABS,ioos:station:wmo:42050:1,2013-12-02T02:30:00Z,28.8425,-94.2433,2.0,35.7786,11111222 
TABS,ioos:station:wmo:42050:1,2013-12-02T03:00:00Z,28.8425,-94.2433,2.0,35.7746,11111222 
TABS,ioos:station:wmo:42050:1,2013-12-02T03:30:00Z,28.8425,-94.2433,2.0,35.7694,11111222 
TABS,ioos:station:wmo:42050:1,2013-12-02T04:00:00Z,28.8425,-94.2433,2.0,35.7654,11111222 
TABS,ioos:station:wmo:42050:1,2013-12-02T04:30:00Z,28.8425,-94.2433,2.0,35.7633,11111222 
TABS,ioos:station:wmo:42050:1,2013-12-02T05:00:00Z,28.8425,-94.2433,2.0,35.7616,11111222 
TABS,ioos:station:wmo:42050:1,2013-12-02T05:30:00Z,28.8425,-94.2433,2.0,35.7623,11111222 
TABS,ioos:station:wmo:42050:1,2013-12-02T06:00:00Z,28.8425,-94.2433,2.0,35.7638,11111222 
TABS,ioos:station:wmo:42050:1,2013-12-02T06:30:00Z,28.8425,-94.2433,2.0,35.768,11111222 
TABS,ioos:station:wmo:42050:1,2013-12-02T07:00:00Z,28.8425,-94.2433,2.0,35.7797,11111222 
TABS,ioos:station:wmo:42050:1,2013-12-02T07:30:00Z,28.8425,-94.2433,2.0,35.7493,11111222 
TABS,ioos:station:wmo:42050:1,2013-12-02T08:00:00Z,28.8425,-94.2433,2.0,35.6647,11111222 
TABS,ioos:station:wmo:42050:1,2013-12-02T08:30:00Z,28.8425,-94.2433,2.0,35.6488,11111222 
TABS,ioos:station:wmo:42050:1,2013-12-02T09:00:00Z,28.8425,-94.2433,2.0,35.642,11111222 
TABS,ioos:station:wmo:42050:1,2013-12-02T09:30:00Z,28.8425,-94.2433,2.0,35.6287,11111222 
TABS,ioos:station:wmo:42050:1,2013-12-02T10:00:00Z,28.8425,-94.2433,2.0,35.6183,11111222 
TABS,ioos:station:wmo:42050:1,2013-12-02T10:30:00Z,28.8425,-94.2433,2.0,35.6198,11111222 
TABS,ioos:station:wmo:42050:1,2013-12-02T11:00:00Z,28.8425,-94.2433,2.0,35.619,11111222 
TABS,ioos:station:wmo:42050:1,2013-12-02T11:30:00Z,28.8425,-94.2433,2.0,35.6048,11111222 
TABS,ioos:station:wmo:42050:1,2013-12-02T12:00:00Z,28.8425,-94.2433,2.0,35.5258,11111222 
TABS,ioos:station:wmo:42050:1,2013-12-02T12:30:00Z,28.8425,-94.2433,2.0,35.5346,11111222 
TABS,ioos:station:wmo:42050:1,2013-12-02T13:00:00Z,28.8425,-94.2433,2.0,35.5022,11111222 
TABS,ioos:station:wmo:42050:1,2013-12-02T13:30:00Z,28.8425,-94.2433,2.0,35.4659,11111222 
TABS,ioos:station:wmo:42050:1,2013-12-02T14:00:00Z,28.8425,-94.2433,2.0,35.4491,11111222 
TABS,ioos:station:wmo:42050:1,2013-12-02T14:30:00Z,28.8425,-94.2433,2.0,35.4026,11111222 
TABS,ioos:station:wmo:42050:1,2013-12-02T15:00:00Z,28.8425,-94.2433,2.0,35.3929,11111222 
TABS,ioos:station:wmo:42050:1,2013-12-02T15:30:00Z,28.8425,-94.2433,2.0,35.3782,11111222 
TABS,ioos:station:wmo:42050:1,2013-12-02T16:00:00Z,28.8425,-94.2433,2.0,35.355,11111222 
TABS,ioos:station:wmo:42050:1,2013-12-02T16:30:00Z,28.8425,-94.2433,2.0,35.3647,11111222 
TABS,ioos:station:wmo:42050:1,2013-12-02T17:00:00Z,28.8425,-94.2433,2.0,35.3997,11111222 
TABS,ioos:station:wmo:42050:1,2013-12-02T17:30:00Z,28.8425,-94.2433,2.0,35.475,11111222 
TABS,ioos:station:wmo:42050:1,2013-12-02T18:00:00Z,28.8425,-94.2433,2.0,35.4948,11111222 
TABS,ioos:station:wmo:42050:1,2013-12-02T18:30:00Z,28.8425,-94.2433,2.0,35.5588,11111222 
TABS,ioos:station:wmo:42050:1,2013-12-02T19:00:00Z,28.8425,-94.2433,2.0,35.6824,11111222 
TABS,ioos:station:wmo:42050:1,2013-12-02T19:30:00Z,28.8425,-94.2433,2.0,35.6926,11111222 
TABS,ioos:station:wmo:42050:1,2013-12-02T20:00:00Z,28.8425,-94.2433,2.0,35.8159,11111222 
TABS,ioos:station:wmo:42050:1,2013-12-02T20:30:00Z,28.8425,-94.2433,2.0,35.8439,11111222 
TABS,ioos:station:wmo:42050:1,2013-12-02T21:00:00Z,28.8425,-94.2433,2.0,35.9096,11111222 
TABS,ioos:station:wmo:42050:1,2013-12-02T21:30:00Z,28.8425,-94.2433,2.0,35.9006,11111222 
TABS,ioos:station:wmo:42050:1,2013-12-02T22:00:00Z,28.8425,-94.2433,2.0,35.8683,11111222 
TABS,ioos:station:wmo:42050:1,2013-12-02T22:30:00Z,28.8425,-94.2433,2.0,35.8063,11111222 
TABS,ioos:station:wmo:42050:1,2013-12-02T23:00:00Z,28.8425,-94.2433,2.0,35.8651,11111222 
TABS,ioos:station:wmo:42050:1,2013-12-02T23:30:00Z,28.8425,-94.2433,2.0,35.799,11111222 
TABS,ioos:station:wmo:42050:1,2013-12-03T00:00:00Z,28.8425,-94.2433,2.0,35.7691,11111222 
TABS,ioos:station:wmo:42050:1,2013-12-03T00:30:00Z,28.8425,-94.2433,2.0,35.7335,11111222 
TABS,ioos:station:wmo:42050:1,2013-12-03T01:00:00Z,28.8425,-94.2433,2.0,35.7614,11111222 
TABS,ioos:station:wmo:42050:1,2013-12-03T01:30:00Z,28.8425,-94.2433,2.0,35.7335,11111222 
TABS,ioos:station:wmo:42050:1,2013-12-03T02:00:00Z,28.8425,-94.2433,2.0,35.7755,11111222 
TABS,ioos:station:wmo:42050:1,2013-12-03T02:30:00Z,28.8425,-94.2433,2.0,35.763,11111222 
TABS,ioos:station:wmo:42050:1,2013-12-03T03:00:00Z,28.8425,-94.2433,2.0,35.7677,11111222 
TABS,ioos:station:wmo:42050:1,2013-12-03T03:30:00Z,28.8425,-94.2433,2.0,35.7857,11111222 
TABS,ioos:station:wmo:42050:1,2013-12-03T04:00:00Z,28.8425,-94.2433,2.0,35.7644,11111222 
TABS,ioos:station:wmo:42050:1,2013-12-03T04:30:00Z,28.8425,-94.2433,2.0,35.7175,11111222 
TABS,ioos:station:wmo:42050:1,2013-12-03T05:00:00Z,28.8425,-94.2433,2.0,35.6489,11111222 
TABS,ioos:station:wmo:42050:1,2013-12-03T05:30:00Z,28.8425,-94.2433,2.0,35.6199,11111222 
TABS,ioos:station:wmo:42050:1,2013-12-03T06:00:00Z,28.8425,-94.2433,2.0,35.5964,11111222 
TABS,ioos:station:wmo:42050:1,2013-12-03T06:30:00Z,28.8425,-94.2433,2.0,35.5809,11111222 
TABS,ioos:station:wmo:42050:1,2013-12-03T07:00:00Z,28.8425,-94.2433,2.0,35.5699,11111222 
TABS,ioos:station:wmo:42050:1,2013-12-03T07:30:00Z,28.8425,-94.2433,2.0,35.5886,11111222 
TABS,ioos:station:wmo:42050:1,2013-12-03T08:00:00Z,28.8425,-94.2433,2.0,35.5456,11111222 
TABS,ioos:station:wmo:42050:1,2013-12-03T08:30:00Z,28.8425,-94.2433,2.0,35.5426,11111222 
TABS,ioos:station:wmo:42050:1,2013-12-03T09:00:00Z,28.8425,-94.2433,2.0,35.5464,11111222 
TABS,ioos:station:wmo:42050:1,2013-12-03T09:30:00Z,28.8425,-94.2433,2.0,35.4905,11111222 
TABS,ioos:station:wmo:42050:1,2013-12-03T10:00:00Z,28.8425,-94.2433,2.0,35.3984,11111222 
TABS,ioos:station:wmo:42050:1,2013-12-03T10:30:00Z,28.8425,-94.2433,2.0,35.301,11111222 
TABS,ioos:station:wmo:42050:1,2013-12-03T11:00:00Z,28.8425,-94.2433,2.0,35.18,11111222 
TABS,ioos:station:wmo:42050:1,2013-12-03T11:30:00Z,28.8425,-94.2433,2.0,35.1715,11111222 
TABS,ioos:station:wmo:42050:1,2013-12-03T12:00:00Z,28.8425,-94.2433,2.0,35.1473,11111222 
TABS,ioos:station:wmo:42050:1,2013-12-03T12:30:00Z,28.8425,-94.2433,2.0,35.1361,11111222 
TABS,ioos:station:wmo:42050:1,2013-12-03T13:00:00Z,28.8425,-94.2433,2.0,35.1302,11111222 
TABS,ioos:station:wmo:42050:1,2013-12-03T13:30:00Z,28.8425,-94.2433,2.0,35.0827,11111222 
TABS,ioos:station:wmo:42050:1,2013-12-03T14:00:00Z,28.8425,-94.2433,2.0,34.9422,11111222 
TABS,ioos:station:wmo:42050:1,2013-12-03T14:30:00Z,28.8425,-94.2433,2.0,34.8664,11111222 
TABS,ioos:station:wmo:42050:1,2013-12-03T15:00:00Z,28.8425,-94.2433,2.0,34.7682,11111222 
TABS,ioos:station:wmo:42050:1,2013-12-03T15:30:00Z,28.8425,-94.2433,2.0,34.7714,11111222 
TABS,ioos:station:wmo:42050:1,2013-12-03T16:00:00Z,28.8425,-94.2433,2.0,34.7577,11111222 
TABS,ioos:station:wmo:42050:1,2013-12-03T16:30:00Z,28.8425,-94.2433,2.0,34.7644,11111222 
TABS,ioos:station:wmo:42050:1,2013-12-03T17:00:00Z,28.8425,-94.2433,2.0,34.7658,11111222 
TABS,ioos:station:wmo:42050:1,2013-12-03T17:30:00Z,28.8425,-94.2433,2.0,34.788,11111222 
TABS,ioos:station:wmo:42050:1,2013-12-03T18:00:00Z,28.8425,-94.2433,2.0,34.7761,11111222 
TABS,ioos:station:wmo:42050:1,2013-12-03T18:30:00Z,28.8425,-94.2433,2.0,34.7949,11111222 
TABS,ioos:station:wmo:42050:1,2013-12-03T19:00:00Z,28.8425,-94.2433,2.0,34.8225,11111222 
TABS,ioos:station:wmo:42050:1,2013-12-03T19:30:00Z,28.8425,-94.2433,2.0,34.8558,11111222 
TABS,ioos:station:wmo:42050:1,2013-12-03T20:00:00Z,28.8425,-94.2433,2.0,34.8727,11111222 
TABS,ioos:station:wmo:42050:1,2013-12-03T20:30:00Z,28.8425,-94.2433,2.0,34.8959,11111222 
TABS,ioos:station:wmo:42050:1,2013-12-03T21:00:00Z,28.8425,-94.2433,2.0,34.899,11111222 
TABS,ioos:station:wmo:42050:1,2013-12-03T21:30:00Z,28.8425,-94.2433,2.0,34.9281,11111222 
TABS,ioos:station:wmo:42050:1,2013-12-03T22:00:00Z,28.8425,-94.2433,2.0,34.9247,11111222 
TABS,ioos:station:wmo:42050:1,2013-12-03T22:30:00Z,28.8425,-94.2433,2.0,34.9053,11111222 
TABS,ioos:station:wmo:42050:1,2013-12-03T23:00:00Z,28.8425,-94.2433,2.0,34.8955,11111222 
TABS,ioos:station:wmo:42050:1,2013-12-03T23:30:00Z,28.8425,-94.2433,2.0,34.8704,11111222 
TABS,ioos:station:wmo:42050:1,2013-12-04T00:00:00Z,28.8425,-94.2433,2.0,34.8326,11111222 
TABS,ioos:station:wmo:42050:1,2013-12-04T00:30:00Z,28.8425,-94.2433,2.0,34.8216,11111222 
TABS,ioos:station:wmo:42050:1,2013-12-04T01:00:00Z,28.8425,-94.2433,2.0,34.7992,11111222 
TABS,ioos:station:wmo:42050:1,2013-12-04T01:30:00Z,28.8425,-94.2433,2.0,34.9175,11111222 
TABS,ioos:station:wmo:42050:1,2013-12-04T02:00:00Z,28.8425,-94.2433,2.0,34.7754,11111222 
TABS,ioos:station:wmo:42050:1,2013-12-04T02:30:00Z,28.8425,-94.2433,2.0,34.7696,11111222 
TABS,ioos:station:wmo:42050:1,2013-12-04T03:00:00Z,28.8425,-94.2433,2.0,34.7525,11111222 
TABS,ioos:station:wmo:42050:1,2013-12-04T03:30:00Z,28.8425,-94.2433,2.0,34.7565,11111222 
TABS,ioos:station:wmo:42050:1,2013-12-04T04:00:00Z,28.8425,-94.2433,2.0,34.7623,11111222 
TABS,ioos:station:wmo:42050:1,2013-12-04T04:30:00Z,28.8425,-94.2433,2.0,34.7868,11111222 
TABS,ioos:station:wmo:42050:1,2013-12-04T05:00:00Z,28.8425,-94.2433,2.0,34.7802,11111222 
TABS,ioos:station:wmo:42050:1,2013-12-04T05:30:00Z,28.8425,-94.2433,2.0,34.7905,11111222 
TABS,ioos:station:wmo:42050:1,2013-12-04T06:00:00Z,28.8425,-94.2433,2.0,34.7962,11111222 
TABS,ioos:station:wmo:42050:1,2013-12-04T06:30:00Z,28.8425,-94.2433,2.0,34.802,11111222 
TABS,ioos:station:wmo:42050:1,2013-12-04T07:00:00Z,28.8425,-94.2433,2.0,34.8055,11111222 
TABS,ioos:station:wmo:42050:1,2013-12-04T07:30:00Z,28.8425,-94.2433,2.0,34.8108,11111222 
TABS,ioos:station:wmo:42050:1,2013-12-04T08:00:00Z,28.8425,-94.2433,2.0,34.813,11111222 
TABS,ioos:station:wmo:42050:1,2013-12-04T08:30:00Z,28.8425,-94.2433,2.0,34.8156,11111222 
TABS,ioos:station:wmo:42050:1,2013-12-04T09:00:00Z,28.8425,-94.2433,2.0,34.8127,11111222 
TABS,ioos:station:wmo:42050:1,2013-12-04T09:30:00Z,28.8425,-94.2433,2.0,34.8088,11111222 
TABS,ioos:station:wmo:42050:1,2013-12-04T10:00:00Z,28.8425,-94.2433,2.0,34.8227,11111222 
TABS,ioos:station:wmo:42050:1,2013-12-04T10:30:00Z,28.8425,-94.2433,2.0,34.8389,11111222 
TABS,ioos:station:wmo:42050:1,2013-12-04T11:00:00Z,28.8425,-94.2433,2.0,34.8078,11111222 
TABS,ioos:station:wmo:42050:1,2013-12-04T11:30:00Z,28.8425,-94.2433,2.0,34.82,11111222 
TABS,ioos:station:wmo:42050:1,2013-12-04T12:00:00Z,28.8425,-94.2433,2.0,34.8713,11111222 
TABS,ioos:station:wmo:42050:1,2013-12-04T12:30:00Z,28.8425,-94.2433,2.0,34.8659,11111222 
TABS,ioos:station:wmo:42050:1,2013-12-04T13:00:00Z,28.8425,-94.2433,2.0,34.8632,11111222 
TABS,ioos:station:wmo:42050:1,2013-12-04T13:30:00Z,28.8425,-94.2433,2.0,34.879,11111222 
TABS,ioos:station:wmo:42050:1,2013-12-04T14:00:00Z,28.8425,-94.2433,2.0,34.895,11111222 
TABS,ioos:station:wmo:42050:1,2013-12-04T14:30:00Z,28.8425,-94.2433,2.0,34.9848,11111222 
TABS,ioos:station:wmo:42050:1,2013-12-04T15:00:00Z,28.8425,-94.2433,2.0,35.0298,11111222 
TABS,ioos:station:wmo:42050:1,2013-12-04T15:30:00Z,28.8425,-94.2433,2.0,35.0585,11111222 
TABS,ioos:station:wmo:42050:1,2013-12-04T16:00:00Z,28.8425,-94.2433,2.0,35.0589,11111222 
TABS,ioos:station:wmo:42050:1,2013-12-04T16:30:00Z,28.8425,-94.2433,2.0,35.08,11111222 
TABS,ioos:station:wmo:42050:1,2013-12-04T17:00:00Z,28.8425,-94.2433,2.0,35.1869,11111222 
TABS,ioos:station:wmo:42050:1,2013-12-04T17:30:00Z,28.8425,-94.2433,2.0,35.3147,11111222 
TABS,ioos:station:wmo:42050:1,2013-12-04T18:00:00Z,28.8425,-94.2433,2.0,35.4965,11111222 
TABS,ioos:station:wmo:42050:1,2013-12-04T18:30:00Z,28.8425,-94.2433,2.0,35.6718,11111222 
TABS,ioos:station:wmo:42050:1,2013-12-04T19:00:00Z,28.8425,-94.2433,2.0,35.7235,11111222 
TABS,ioos:station:wmo:42050:1,2013-12-04T19:30:00Z,28.8425,-94.2433,2.0,35.7412,11111222 
TABS,ioos:station:wmo:42050:1,2013-12-04T20:00:00Z,28.8425,-94.2433,2.0,35.72,11111222 
TABS,ioos:station:wmo:42050:1,2013-12-04T20:30:00Z,28.8425,-94.2433,2.0,35.6657,11111222 
TABS,ioos:station:wmo:42050:1,2013-12-04T21:00:00Z,28.8425,-94.2433,2.0,35.5781,11111222 
TABS,ioos:station:wmo:42050:1,2013-12-04T21:30:00Z,28.8425,-94.2433,2.0,35.3761,11111222 
TABS,ioos:station:wmo:42050:1,2013-12-04T22:00:00Z,28.8425,-94.2433,2.0,35.289,11111222 
TABS,ioos:station:wmo:42050:1,2013-12-04T22:30:00Z,28.8425,-94.2433,2.0,35.2235,11111222 
TABS,ioos:station:wmo:42050:1,2013-12-04T23:00:00Z,28.8425,-94.2433,2.0,35.1229,11111222 
TABS,ioos:station:wmo:42050:1,2013-12-04T23:30:00Z,28.8425,-94.2433,2.0,35.1053,11111222 
TABS,ioos:station:wmo:42050:1,2013-12-05T00:00:00Z,28.8425,-94.2433,2.0,35.1068,11111222 
TABS,ioos:station:wmo:42050:1,2013-12-05T00:30:00Z,28.8425,-94.2433,2.0,35.0773,11111222 
TABS,ioos:station:wmo:42050:1,2013-12-05T01:00:00Z,28.8425,-94.2433,2.0,35.0995,11111222 
TABS,ioos:station:wmo:42050:1,2013-12-05T01:30:00Z,28.8425,-94.2433,2.0,35.0616,11111222 
TABS,ioos:station:wmo:42050:1,2013-12-05T02:00:00Z,28.8425,-94.2433,2.0,35.0721,11111222 
TABS,ioos:station:wmo:42050:1,2013-12-05T02:30:00Z,28.8425,-94.2433,2.0,35.0381,11111222 
TABS,ioos:station:wmo:42050:1,2013-12-05T03:00:00Z,28.8425,-94.2433,2.0,35.05,11111222 
TABS,ioos:station:wmo:42050:1,2013-12-05T03:30:00Z,28.8425,-94.2433,2.0,35.0883,11111222 
TABS,ioos:station:wmo:42050:1,2013-12-05T04:00:00Z,28.8425,-94.2433,2.0,35.0984,11111222 
TABS,ioos:station:wmo:42050:1,2013-12-05T04:30:00Z,28.8425,-94.2433,2.0,35.0936,11111222 
TABS,ioos:station:wmo:42050:1,2013-12-05T05:00:00Z,28.8425,-94.2433,2.0,35.0926,11111222 
TABS,ioos:station:wmo:42050:1,2013-12-05T05:30:00Z,28.8425,-94.2433,2.0,35.0908,11111222 
TABS,ioos:station:wmo:42050:1,2013-12-05T06:00:00Z,28.8425,-94.2433,2.0,35.1022,11111222 
TABS,ioos:station:wmo:42050:1,2013-12-05T06:30:00Z,28.8425,-94.2433,2.0,35.1236,11111222 
TABS,ioos:station:wmo:42050:1,2013-12-05T07:00:00Z,28.8425,-94.2433,2.0,35.1238,11111222 
TABS,ioos:station:wmo:42050:1,2013-12-05T07:30:00Z,28.8425,-94.2433,2.0,35.1094,11111222 
TABS,ioos:station:wmo:42050:1,2013-12-05T08:00:00Z,28.8425,-94.2433,2.0,35.1146,11111222 
TABS,ioos:station:wmo:42050:1,2013-12-05T08:30:00Z,28.8425,-94.2433,2.0,35.0955,11111222 
TABS,ioos:station:wmo:42050:1,2013-12-05T09:00:00Z,28.8425,-94.2433,2.0,35.0905,11111222 
TABS,ioos:station:wmo:42050:1,2013-12-05T09:30:00Z,28.8425,-94.2433,2.0,35.0829,11111222 
TABS,ioos:station:wmo:42050:1,2013-12-05T10:00:00Z,28.8425,-94.2433,2.0,35.0745,11111222 
TABS,ioos:station:wmo:42050:1,2013-12-05T10:30:00Z,28.8425,-94.2433,2.0,35.0885,11111222 
TABS,ioos:station:wmo:42050:1,2013-12-05T11:00:00Z,28.8425,-94.2433,2.0,35.0756,11111222 
TABS,ioos:station:wmo:42050:1,2013-12-05T11:30:00Z,28.8425,-94.2433,2.0,35.0807,11111222 
TABS,ioos:station:wmo:42050:1,2013-12-05T12:00:00Z,28.8425,-94.2433,2.0,35.0723,11111222 
TABS,ioos:station:wmo:42050:1,2013-12-05T12:30:00Z,28.8425,-94.2433,2.0,35.0735,11111222 
TABS,ioos:station:wmo:42050:1,2013-12-05T13:00:00Z,28.8425,-94.2433,2.0,35.0828,11111222 
TABS,ioos:station:wmo:42050:1,2013-12-05T13:30:00Z,28.8425,-94.2433,2.0,35.1306,11111222 
TABS,ioos:station:wmo:42050:1,2013-12-05T14:00:00Z,28.8425,-94.2433,2.0,35.1575,11111222 
TABS,ioos:station:wmo:42050:1,2013-12-05T14:30:00Z,28.8425,-94.2433,2.0,35.2281,11111222 
TABS,ioos:station:wmo:42050:1,2013-12-05T15:00:00Z,28.8425,-94.2433,2.0,35.2333,11111222 
TABS,ioos:station:wmo:42050:1,2013-12-05T15:30:00Z,28.8425,-94.2433,2.0,35.2895,11111222 
TABS,ioos:station:wmo:42050:1,2013-12-05T16:00:00Z,28.8425,-94.2433,2.0,35.2602,11111222 
TABS,ioos:station:wmo:42050:1,2013-12-05T16:30:00Z,28.8425,-94.2433,2.0,35.2359,11111222 
TABS,ioos:station:wmo:42050:1,2013-12-05T17:00:00Z,28.8425,-94.2433,2.0,35.3008,11111222 
TABS,ioos:station:wmo:42050:1,2013-12-05T17:30:00Z,28.8425,-94.2433,2.0,35.356,11111222 
TABS,ioos:station:wmo:42050:1,2013-12-05T18:00:00Z,28.8425,-94.2433,2.0,35.3018,11111222 
TABS,ioos:station:wmo:42050:1,2013-12-05T18:30:00Z,28.8425,-94.2433,2.0,35.2823,11111222 
TABS,ioos:station:wmo:42050:1,2013-12-05T19:00:00Z,28.8425,-94.2433,2.0,35.2627,11111222 
TABS,ioos:station:wmo:42050:1,2013-12-05T19:30:00Z,28.8425,-94.2433,2.0,35.2944,11111222 
TABS,ioos:station:wmo:42050:1,2013-12-05T20:00:00Z,28.8425,-94.2433,2.0,35.2895,11111222 
TABS,ioos:station:wmo:42050:1,2013-12-05T20:30:00Z,28.8425,-94.2433,2.0,35.2776,11111222 
TABS,ioos:station:wmo:42050:1,2013-12-05T21:00:00Z,28.8425,-94.2433,2.0,35.2889,11111222 
TABS,ioos:station:wmo:42050:1,2013-12-05T21:30:00Z,28.8425,-94.2433,2.0,35.319,11111222 
TABS,ioos:station:wmo:42050:1,2013-12-05T22:00:00Z,28.8425,-94.2433,2.0,35.2922,11111222 
TABS,ioos:station:wmo:42050:1,2013-12-05T22:30:00Z,28.8425,-94.2433,2.0,35.2701,11111222 
TABS,ioos:station:wmo:42050:1,2013-12-05T23:00:00Z,28.8425,-94.2433,2.0,35.2779,11111222 
TABS,ioos:station:wmo:42050:1,2013-12-05T23:30:00Z,28.8425,-94.2433,2.0,35.2725,11111222 
TABS,ioos:station:wmo:42050:1,2013-12-06T00:00:00Z,28.8425,-94.2433,2.0,35.2658,11111222 
TABS,ioos:station:wmo:42050:1,2013-12-06T00:30:00Z,28.8425,-94.2433,2.0,35.2813,11111222 
TABS,ioos:station:wmo:42050:1,2013-12-06T01:00:00Z,28.8425,-94.2433,2.0,35.2567,11111222 
TABS,ioos:station:wmo:42050:1,2013-12-06T01:30:00Z,28.8425,-94.2433,2.0,35.2665,11111222 
TABS,ioos:station:wmo:42050:1,2013-12-06T02:00:00Z,28.8425,-94.2433,2.0,35.3039,11111222 
TABS,ioos:station:wmo:42050:1,2013-12-06T02:30:00Z,28.8425,-94.2433,2.0,35.3896,11111222 
TABS,ioos:station:wmo:42050:1,2013-12-06T03:00:00Z,28.8425,-94.2433,2.0,35.4513,11111222 
TABS,ioos:station:wmo:42050:1,2013-12-06T03:30:00Z,28.8425,-94.2433,2.0,35.5152,11111222 
TABS,ioos:station:wmo:42050:1,2013-12-06T04:00:00Z,28.8425,-94.2433,2.0,35.5424,11111222 
TABS,ioos:station:wmo:42050:1,2013-12-06T04:30:00Z,28.8425,-94.2433,2.0,35.5923,11111222 
TABS,ioos:station:wmo:42050:1,2013-12-06T05:00:00Z,28.8425,-94.2433,2.0,35.6012,11111222 
TABS,ioos:station:wmo:42050:1,2013-12-06T05:30:00Z,28.8425,-94.2433,2.0,35.6323,11111222 
TABS,ioos:station:wmo:42050:1,2013-12-06T06:00:00Z,28.8425,-94.2433,2.0,35.6636,11111222 
TABS,ioos:station:wmo:42050:1,2013-12-06T06:30:00Z,28.8425,-94.2433,2.0,35.7316,11111222 
TABS,ioos:station:wmo:42050:1,2013-12-06T07:00:00Z,28.8425,-94.2433,2.0,35.7549,11111222 
TABS,ioos:station:wmo:42050:1,2013-12-06T07:30:00Z,28.8425,-94.2433,2.0,35.7784,11111222 
TABS,ioos:station:wmo:42050:1,2013-12-06T08:00:00Z,28.8425,-94.2433,2.0,35.833,11111222 
TABS,ioos:station:wmo:42050:1,2013-12-06T08:30:00Z,28.8425,-94.2433,2.0,35.8465,11111222 
TABS,ioos:station:wmo:42050:1,2013-12-06T09:00:00Z,28.8425,-94.2433,2.0,35.8599,11111222 
TABS,ioos:station:wmo:42050:1,2013-12-06T09:30:00Z,28.8425,-94.2433,2.0,35.8854,11111222 
TABS,ioos:station:wmo:42050:1,2013-12-06T10:00:00Z,28.8425,-94.2433,2.0,35.9357,11111222 
TABS,ioos:station:wmo:42050:1,2013-12-06T10:30:00Z,28.8425,-94.2433,2.0,35.9513,11111222 
TABS,ioos:station:wmo:42050:1,2013-12-06T11:00:00Z,28.8425,-94.2433,2.0,35.9704,11111222 
TABS,ioos:station:wmo:42050:1,2013-12-06T11:30:00Z,28.8425,-94.2433,2.0,35.9886,11111222 
TABS,ioos:station:wmo:42050:1,2013-12-06T12:00:00Z,28.8425,-94.2433,2.0,36.0074,11111222 
TABS,ioos:station:wmo:42050:1,2013-12-06T12:30:00Z,28.8425,-94.2433,2.0,35.9817,11111222 